www.pogodaiklimat.ru

Погода и климат >> Архив погоды >> Украина >> Артемовск


ПОГОДА в Артемовске

  • Прогноз погоды в Артемовске
  • Монитор погоды в Артемовске

АРХИВ ПОГОДЫ в Артемовске

Время (UTC), дата Ветер
(напр.,м/с)
 
Видим.   Явления Облачность Т
(С)
Тd
(С)
f
(%)
Тe
(С)
Тes
(С)
Комфортность P
(гПа)
Po
(гПа)
Тmin
(С)
Tmax
(С)
R
(мм)
R24
(мм)
S
(см)
12 10.07 ЮЗ 3 50 км 3/3 600 м
[Cu med, cong]
+23.7 +6.5 33 +24 +31 комфорт 1005.0 990.8
15 10.07 ЮЗ 1 50 км 3/3 600 м
[Cu med, cong]
+24.0 +6.7 33 +24 +26 комфорт 1005.0 990.8
18 10.07 ЮЗ 1 20 км 3/0
[Ac cuf]
+18.6 +6.4 45 +20 +20 1006.0 991.5 +25.4
21 10.07 штиль 0 20 км 1/0
[Ci fib]
+14.4 +8.6 68 +14 +14 1006.0 991.3
00 11.07 штиль 0 20 км ясно +11.7 +8.5 81 +11 +11 1006.0 991.2
03 11.07 ЮВ 1 20 км 9/0
[Ac As]
+12.1 +9.1 82 +12 +12 1006.0 991.2
06 11.07 В 1 20 км 9/0
[Ac As]
+20.3 +11.8 58 +23 +23 комфорт 1005.0 990.6 +10.8
09 11.07 ЮВ 1 20 км {ливн. осадки} 10/6 600 м
[Cb calv Ac und]
+20.0 +14.8 72 +23 +23 комфорт 1005.0 990.6
12 11.07 Ю 5 20 км {ливн. осадки} 8/3 600 м
[Cb calv Ac trans]
+22.2 +9.9 46 +24 +27 комфорт 1004.9 990.8 1
15 11.07 З 2 50 км 8/8 600 м
[Cb calv]
+23.5 +11.0 45 +25 +25 комфорт 1004.7 990.7
18 11.07 Ю 2 20 км {ливн. осадки} 6/6 600 м
[Cb calv]
+17.4 +14.6 84 +18 +18 1005.6 991.3 +23.9 2
21 11.07 ЮВ 2 20 км 3/0
[Ac trans]
+14.0 +11.2 83 +13 +13 1006.3 991.8
00 12.07 Ю 2 20 км 3/0
[Ac trans]
+10.8 +9.2 90 +9 +9 1006.6 991.9
03 12.07 Ю 1 20 км 3/0
[Ci fib]
+10.2 +9.2 94 +10 +11 1007.0 992.3
06 12.07 С 2 50 км 3/0
[Ci fib]
+20.2 +11.4 57 +23 +29 комфорт 1007.0 992.6 +9.8
09 12.07 С 1 50 км 8/8 600 м
[Cu med, cong]
+23.3 +10.4 44 +25 +25 комфорт 1006.0 991.8
12 12.07 З 2 50 км 8/8 600 м
[Cb calv]
+24.7 +8.2 35 +25 +25 комфорт 1006.0 991.8
15 12.07 Ю 1 20 км 8/6 600 м
[Cb calv Ac trans]
+24.8 +7.9 34 +25 +25 комфорт 1006.0 991.8
18 12.07 штиль 0 20 км 6/0
[Ac trans Ci fib]
+20.0 +10.1 53 +21 +21 комфорт 1007.0 992.6 +26.2
21 12.07 ЮВ 2 20 км 3/0
[Ci fib]
+14.0 +10.2 78 +14 +14 1008.0 993.3
00 13.07 штиль 0 20 км 3/0
[Ac trans]
+12.4 +9.8 84 +12 +12 1008.0 993.2
03 13.07 ЮВ 1 20 км 6/0
[Ac trans]
+14.0 +10.8 81 +14 +15 1008.0 993.3
06 13.07 штиль 0 50 км 4/0
[Ac trans Cc]
+20.8 +10.9 53 +22 +31 комфорт 1008.0 993.6 +11.6
09 13.07 СЗ 2 50 км 8/8 600 м
[Cb calv]
+24.6 +10.1 40 +26 +26 жарко 1007.0 992.8
12 13.07 Ю 3 50 км 8/8 600 м
[Cb calv Ci ing]
+24.4 +11.3 44 +26 +26 жарко 1007.0 992.8
15 13.07 Ю 4 20 км гроза без осадков 8/8 600 м
[Cb cap]
+22.9 +11.3 48 +25 +25 комфорт 1008.0 993.7
18 13.07 Ю 2 20 км {гроза} 8/6 600 м
[Cb calv Ac trans]
+19.6 +12.1 62 +22 +22 комфорт 1009.0 994.6 +26.4
21 13.07 штиль 0 20 км 5/3 600 м
[Sc Ac trans]
+14.7 +11.8 83 +14 +14 1010.0 995.3
00 14.07 штиль 0 10 км ясно +11.5 +10.6 94 +11 +11 1009.0 994.1
03 14.07 штиль 0 20 км ясно +11.0 +10.4 96 +10 +11 1010.0 995.1
06 14.07 СЗ 1 20 км ясно +19.9 +12.9 64 +23 +34 комфорт 1010.0 995.6 +9.8
09 14.07 СВ 2 50 км 8/8 600 м
[Cu med, cong]
+25.2 +10.6 40 +26 +26 жарко 1009.0 994.8
12 14.07 С 2 50 км 8/6 600 м
[Cb calv Cs]
+25.3 +9.1 36 +26 +26 жарко 1008.0 993.8
15 14.07 С 1 50 км 6/4 600 м
[Cu med, cong Ac trans Ci fib]
+25.8 +9.6 36 +26 +28 жарко 1008.0 993.9
18 14.07 ЮЗ 1 20 км 9/8 600 м
[Cb calv Ac trans]
+20.6 +10.7 53 +23 +23 комфорт 1009.0 994.6 +27.2
21 14.07 штиль 0 10 км 9/8 600 м
[Sc Ac trans]
+16.8 +11.1 69 +17 +17 1009.0 994.4
00 15.07 штиль 0 20 км ясно +12.9 +10.8 87 +12 +12 1009.0 994.2
03 15.07 штиль 0 20 км ясно +12.9 +11.5 91 +12 +14 1009.0 994.2
06 15.07 С 1 20 км ясно +22.2 +14.1 60 +25 +36 комфорт 1008.0 993.7 +11.2
09 15.07 В 3 50 км 8/8 600 м
[Cu med, cong]
+27.4 +9.2 32 +28 +28 жарко 1007.0 992.9
12 15.07 В 2 50 км 3/3 600 м
[Cu med, cong]
+28.0 +9.8 32 +28 +37 жарко 1006.0 992.0
15 15.07 В 1 20 км 9/4 600 м
[Sc Ac trans Cs]
+27.4 +9.2 32 +28 +28 жарко 1006.0 992.0
18 15.07 штиль 0 20 км 9/3 600 м
[Sc Ac As]
+23.0 +10.4 45 +25 +25 комфорт 1007.0 992.7 +29.4
21 15.07 ЮВ 2 10 км 9/3 600 м
[Sc Ac As Ci fib]
+20.4 +11.3 56 +23 +23 комфорт 1007.0 992.6
00 16.07 ЮВ 1 10 км 10/10 600 м
[Cb calv]
+19.0 +16.6 86 +22 +22 комфорт 1007.0 992.6
03 16.07 СЗ 1 20 км в посл. час ливневой дождь 10/10 600 м
[Cb calv]
+17.8 +17.2 96 +19 +19 1007.0 992.5
06 16.07 С 3 20 км в посл. час ливневой дождь 10/10 600 м
[Cb calv]
+18.4 +17.2 93 +19 +19 1007.0 992.6 +17.5 4
09 16.07 СВ 2 20 км {ливн. осадки} 10/10 600 м
[Cb calv]
+18.8 +15.8 83 +20 +20 1006.0 991.6
12 16.07 СЗ 4 20 км {ливн. осадки} 8/8 600 м
[Cb calv]
+20.2 +16.4 79 +23 +23 комфорт 1005.0 990.7 0.3
15 16.07 С 1 20 км 8/6 600 м
[Cb calv Ac cuf]
+20.4 +17.0 81 +25 +25 комфорт 1005.0 990.7
18 16.07 штиль 0 10 км в посл. час ливневой дождь 10/10 600 м
[Cb calv]
+18.1 +17.3 95 +18 +18 1006.0 991.6 +21.4 2
21 16.07 СЗ 1 10 км в посл. час ливневой дождь 10/10 600 м
[Cb calv]
+17.3 +16.7 96 +18 +18 1006.0 991.5
00 17.07 штиль 0 10 км {ливн. осадки} 3/3 600 м
[Sc]
+15.6 +15.0 96 +15 +15 1007.0 992.4 0.8
03 17.07 штиль 0 4000 м дымка ясно +14.7 +14.5 99 +14 +15 1007.0 992.4
06 17.07 З 1 20 км 8/3 600 м
[Cu med, cong Ci]
+20.8 +17.2 80 +26 +26 душно 1007.0 992.7 +14.0 0.8
09 17.07 ЮЗ 2 20 км 6/3 600 м
[Cu med, cong Ci fib]
+24.2 +15.7 59 +27 +34 жарко 1006.0 991.8

 

Местоположение метеостанции Артемовск (Донецкая область, Украина): широта 48.60 долгота 37.98 высота над уровнем моря 124 м.

В архиве по умолчанию представлена погода в Артемовске за последнюю неделю. Архивные данные за месяц целиком и за предыдущие месяцы, начиная с января 2011 года, Вы можете получить, выбрав интересующий диапазон дат из раскрывающегося списка и нажав кнопку "Ввод!".


*Определитесь, кто Вы:
робот инопланетянин человек

Внимание! Время в таблицах - всемирное. Для получения местного времени необходимо прибавить поправку, которая равна 2 ч.

Смотрите также архив погоды в соседних городах и на ближайших метеорологических станциях:

Погода в Изюме (Харьковская область, Украина) (81 км)
Погода в Сватово (Луганская область, Украина) (92 км)
Погода в Александрополе (Днепропетровская область, Украина) (105 км)
Погода в Купянске (Харьковская область, Украина) (116 км)
Погода в Волновахе (Донецкая область, Украина) (119 км)
Погода в Лозовой (Харьковская область, Украина) (126 км)
Погода в Матвеевом Кургане (Ростовская область, Россия) (133 км)
Погода в Беловодске (Луганская область, Украина) (136 км)
Погода в Чаплино (Днепропетровская область, Украина) (139 км)
Погода в Троицком (Луганская область, Украина) (148 км)

Пояснения к столбцам:

Ветер - указаны скорость ветра в м/с - средняя за 10 мин, порывы в срок и между сроками (в фигурных скобках) и направление, откуда дует ветер: С - северный, СВ - северо-восточный, В - восточный, ЮВ - юго-восточный, Ю - южный, ЮЗ - юго-западный, З - западный, СЗ - северо-западный.
Видимость - горизонтальная дальность видимости в метрах или километрах. При видимости от 1 до 10 км при отсутствии осадков обычно наблюдается дымка, при ухудшении видимости до 1 км и менее - туман. В сухую погоду видимость может ухудшаться дымом, пылью или мглою.
Явления - указаны атмосферные явления, наблюдавшиеся в срок или в последний час перед сроком; фигурными скобками обозначены явления, наблюдавшиеся между сроками (за 1-3 часа до срока); квадратными скобками обозначены град или гололедные отложения с указанием их диаметра в мм.
Облачность - указаны через наклонную черту общая и нижняя облачность в баллах и высота нижней границы облаков в метрах; квадратными скобками обозначены формы облаков: Ci - перистые, Cs - перисто-слоистые, Cc - перисто-кучевые, Ac - высококучевые, As - высокослоистые, Sc - слоисто-кучевые, Ns - слоисто-дождевые, Cu - кучевые, Cb - кучево-дождевые. Подробнее классификацию облаков см. в Атласе облаков (PDF).
T - Температура воздуха - температура, измеренная на высоте 2 м над землей.
Td - Температура точки росы - температура, при понижении до которой содержащийся в воздухе водяной пар достигнет насыщения.
f - Относительная влажность воздуха - влажноcть воздуха, измеренная на высоте 2 м над землей.
Te - Эффективная температура - температура, которую ощущает одетый по сезону человек в тени. Характеристика душности погоды. При расчете учитывается влияние влажности воздуха и скорости ветра на теплоощущения человека.
Tes - Эффективная температура на солнце - температура, которую ощущает человек, с поправкой на солнечный нагрев. Характеристика знойности погоды. Зависит от высоты солнца над горизонтом, облачности и скорости ветра. Ночью, в пасмурную погоду, а также при ветре 12 м/с и более поправка равна нулю.
P - Атмосферное давление - приведенное к уровню моря атмосферное давление.
Po - Атмосферное давление - измеренное на уровне метеостанции атмосферное давление.
Tmin - Минимальная температура - минимум температуры воздуха на высоте 2 м над землей.
Tmax - Максимальная температура - максимум температуры воздуха на высоте 2 м над землей.
R - Количество осадков - Количество выпавших осадков за период времени, мм. При наведении курсора мыши на число - период времени, за который выпало указанное количество осадков.
R24 - Количество осадков - Количество выпавших осадков за 24 часа, мм.
S - Снежный покров - Высота снежного покрова, см. При наведении курсора мыши на число - состояние снежного покрова и степень покрытия местности в баллах.